{"data":{"norad_id":48793,"intl_designator":"2021-045AC","name":"ONEWEB-0226","alt_names":[],"object_type":"PAYLOAD","status":"ACTIVE","operator":null,"country":"UK","launch_date":"2021-05-28","launch_site_code":"VOSTO","launch_vehicle":null,"mission":null,"orbit_class":"UNKNOWN","rcs_meters":null,"size_class":null,"mass_kg":null,"dimensions":null,"purposes":["comms"],"wikipedia_slug":null,"has_3d_model":false,"image_url":null,"decayed_at":null,"tle_current":{"epoch":"2026-05-25T01:57:08.909568Z","epoch_age_seconds":61983,"freshness":"FRESH","line1":"1 48793U 21045AC  26145.08135312  .00000155  00000+0  37726-3 0  9992","line2":"2 48793  87.8994 263.7965 0001773  91.9611 268.1723 13.15548482241312","mean_motion":13.15548482,"eccentricity":0.0001773,"inclination_deg":87.8994,"raan_deg":263.7965,"arg_perigee_deg":91.9611,"mean_anomaly_deg":268.1723,"bstar":0.00037726,"rev_number":24131,"period_min":109.46004801061,"perigee_km":1200.427110969,"apogee_km":1203.1149463559,"semimajor_km":7579.9080286625,"source":"CELESTRAK","updated_at":"2026-05-25T13:38:22.447097Z"}}}